User: anonymous   Login
Location: Caltech
(34.1382°N, 118.1253°W)
Time: 03:18:41
(UTC-07:00)
Language:

NOSS 3-4 (C) - Orbit

View from above orbital plane
View from above orbital plane
View from above satellite
View from above satellite

Ground track
Ground track

The orbit data is extracted from the following two-line orbital elements,

1 31708U 07027C   17230.96961505 0.00000000  00000-0  00000-0 0    02
2 31708  63.4000 283.5430 0192000  25.0652 334.9348 13.40729536    05
Epoch (UTC): 18 August 2017 23:16:14
Eccentricity: 0.0192000
inclination: 63.4000°
perigee height: 963 km
apogee height: 1250 km
right ascension of ascending node: 283.5430°
argument of perigee: 25.0652°
revolutions per day: 13.40729536
mean anomaly at epoch: 334.9348°
orbit number at epoch: 0

The dashed part of the orbit path shows where the satellite is in the earth's shadow,  

DLR